Tracking 25693 objects as of 1-Jul-2022
HD Live streaming from Space Station
objects crossing your sky now

STARLINK-3275

Track STARLINK-3275 now!
10-day predictions
STARLINK-3275 is classified as:


NORAD ID: 50188
Int'l Code: 2021-125AJ
Perigee: 545.1 km
Apogee: 548.7 km
Inclination: 53.2 °
Period: 95.4 minutes
Semi major axis: 6917 km
RCS: Unknown
Launch date: December 18, 2021
Source: United States (US)
Launch site: AIR FORCE WESTERN TEST RANGE (AFWTR)
aabbcc
Your satellite tracking list
Your tracking list is empty




NASA's NSSDC Master Catalog

Two Line Element Set (TLE):
1 50188U 21125AJ  22182.39530968 -.00001201  00000-0 -57328-4 0  9996
2 50188  53.2158 167.3506 0002612  47.4363 312.6849 15.08833654 33387
Source of the keplerian elements: AFSPC